Time,TemperatureF,DewpointF,PressureIn,WindDirection,WindDirectionDegrees,WindSpeedMPH,WindSpeedGustMPH,Humidity,HourlyPrecipIn,Conditions,Clouds,dailyrainin,SoftwareType,DateUTC
2013-01-30 00:02:00,23.0,19.0,-100.00,NNW,340,11.0,19.0,86,0.00,,,-99.99,,2013-01-30 06:02:00,
2013-01-30 00:11:00,23.0,19.0,-100.00,North,0,11.0,19.0,86,0.00,,,-99.99,,2013-01-30 06:11:00,
2013-01-30 00:21:00,22.0,19.0,-100.00,NNW,335,10.0,22.0,87,0.00,,,-99.99,,2013-01-30 06:21:00,
2013-01-30 00:32:00,22.0,19.0,-100.00,North,0,14.0,27.0,86,0.00,,,-99.99,,2013-01-30 06:32:00,
2013-01-30 00:42:00,22.0,19.0,-100.00,North,0,14.0,27.0,86,0.00,,,-99.99,,2013-01-30 06:42:00,
2013-01-30 00:51:00,22.0,19.0,-100.00,North,5,14.0,24.0,85,0.00,,,-99.99,,2013-01-30 06:51:00,
2013-01-30 01:02:00,22.0,19.0,-100.00,North,5,14.0,24.0,85,0.00,,,-99.99,,2013-01-30 07:02:00,
2013-01-30 01:11:00,22.0,19.0,-100.00,NNW,340,16.0,26.0,85,0.00,,,-99.99,,2013-01-30 07:11:00,
2013-01-30 01:21:00,22.0,19.0,-100.00,North,350,14.0,24.0,85,0.00,,,-99.99,,2013-01-30 07:21:00,
2013-01-30 01:32:00,22.0,18.0,-100.00,NNW,330,15.0,29.0,85,0.00,,,-99.99,,2013-01-30 07:32:00,
2013-01-30 01:41:00,22.0,18.0,-100.00,NNW,330,15.0,29.0,85,0.00,,,-99.99,,2013-01-30 07:41:00,
2013-01-30 01:52:00,22.0,18.0,-100.00,NNW,335,17.0,26.0,84,0.00,,,-99.99,,2013-01-30 07:52:00,
2013-01-30 02:01:00,22.0,18.0,-100.00,NNW,335,17.0,26.0,84,0.00,,,-99.99,,2013-01-30 08:01:00,
2013-01-30 02:11:00,21.0,18.0,-100.00,NNW,330,12.0,27.0,84,0.00,,,-99.99,,2013-01-30 08:11:00,
2013-01-30 02:21:00,21.0,17.0,-100.00,NNW,330,11.0,21.0,83,0.00,,,-99.99,,2013-01-30 08:21:00,
2013-01-30 02:32:00,21.0,17.0,-100.00,North,355,14.0,24.0,82,0.00,,,-99.99,,2013-01-30 08:32:00,
2013-01-30 02:42:00,21.0,17.0,-100.00,North,355,14.0,24.0,82,0.00,,,-99.99,,2013-01-30 08:42:00,
2013-01-30 02:52:00,21.0,17.0,-100.00,NNW,340,14.0,26.0,82,0.00,,,-99.99,,2013-01-30 08:52:00,
2013-01-30 03:01:00,21.0,17.0,-100.00,NNW,340,14.0,26.0,82,0.00,,,-99.99,,2013-01-30 09:01:00,
2013-01-30 03:11:00,21.0,16.0,-100.00,North,355,12.0,24.0,81,0.00,,,-99.99,,2013-01-30 09:11:00,
2013-01-30 03:21:00,21.0,16.0,-100.00,NNW,335,9.0,27.0,80,0.00,,,-99.99,,2013-01-30 09:21:00,
2013-01-30 03:32:00,21.0,16.0,-100.00,North,0,15.0,27.0,80,0.00,,,-99.99,,2013-01-30 09:32:00,
2013-01-30 03:41:00,21.0,16.0,-100.00,North,0,15.0,27.0,80,0.00,,,-99.99,,2013-01-30 09:41:00,
2013-01-30 03:51:00,21.0,16.0,-100.00,NNW,340,9.0,20.0,79,0.00,,,-99.99,,2013-01-30 09:51:00,
2013-01-30 04:01:00,21.0,16.0,-100.00,NNW,340,9.0,20.0,79,0.00,,,-99.99,,2013-01-30 10:01:00,
2013-01-30 04:11:00,21.0,15.0,-100.00,North,350,11.0,22.0,78,0.00,,,-99.99,,2013-01-30 10:11:00,
2013-01-30 04:21:00,21.0,15.0,-100.00,NNW,340,13.0,18.0,78,0.00,,,-99.99,,2013-01-30 10:21:00,
2013-01-30 04:32:00,21.0,14.0,-100.00,NNW,330,10.0,20.0,76,0.00,,,-99.99,,2013-01-30 10:32:00,
2013-01-30 04:41:00,21.0,14.0,-100.00,NNW,330,10.0,20.0,76,0.00,,,-99.99,,2013-01-30 10:41:00,
2013-01-30 04:52:00,20.0,14.0,-100.00,NNW,330,14.0,22.0,76,0.00,,,-99.99,,2013-01-30 10:52:00,
2013-01-30 05:02:00,20.0,14.0,-100.00,NNW,330,14.0,22.0,76,0.00,,,-99.99,,2013-01-30 11:02:00,
2013-01-30 05:11:00,20.0,14.0,-100.00,NNW,345,15.0,21.0,76,0.00,,,-99.99,,2013-01-30 11:11:00,
2013-01-30 05:22:00,20.0,13.0,-100.00,NNW,335,16.0,24.0,76,0.00,,,-99.99,,2013-01-30 11:22:00,
2013-01-30 05:32:00,19.0,13.0,-100.00,NNW,335,16.0,24.0,76,0.00,,,-99.99,,2013-01-30 11:32:00,
2013-01-30 05:42:00,19.0,13.0,-100.00,NNW,335,16.0,24.0,76,0.00,,,-99.99,,2013-01-30 11:42:00,
2013-01-30 05:52:00,18.0,12.0,-100.00,NW,325,17.0,27.0,76,0.00,,,-99.99,,2013-01-30 11:52:00,
2013-01-30 06:02:00,18.0,12.0,-100.00,NW,325,17.0,27.0,76,0.00,,,-99.99,,2013-01-30 12:02:00,
2013-01-30 06:12:00,18.0,12.0,-100.00,NNW,345,15.0,31.0,75,0.00,,,-99.99,,2013-01-30 12:12:00,
2013-01-30 06:22:00,18.0,11.0,-100.00,NNW,335,14.0,27.0,74,0.00,,,-99.99,,2013-01-30 12:22:00,
2013-01-30 06:32:00,18.0,11.0,-100.00,NNW,335,15.0,26.0,74,0.00,,,-99.99,,2013-01-30 12:32:00,
2013-01-30 06:42:00,18.0,11.0,-100.00,NNW,335,15.0,26.0,74,0.00,,,-99.99,,2013-01-30 12:42:00,
2013-01-30 07:03:00,17.0,11.0,-100.00,NW,305,15.0,23.0,74,0.00,,,-99.99,,2013-01-30 13:03:00,
2013-01-30 07:12:00,17.0,10.0,-100.00,NNW,330,16.0,28.0,73,0.00,,,-99.99,,2013-01-30 13:12:00,
2013-01-30 07:22:00,17.0,9.0,-100.00,NNW,335,14.0,27.0,72,0.00,,,-99.99,,2013-01-30 13:22:00,
2013-01-30 07:32:00,16.0,9.0,-100.00,NW,315,15.0,26.0,73,0.00,,,-99.99,,2013-01-30 13:32:00,
2013-01-30 07:42:00,16.0,9.0,-100.00,NW,315,15.0,26.0,73,0.00,,,-99.99,,2013-01-30 13:42:00,
2013-01-30 07:52:00,16.0,9.0,-100.00,NNW,330,13.0,24.0,73,0.00,,,-99.99,,2013-01-30 13:52:00,
2013-01-30 08:02:00,16.0,9.0,-100.00,NNW,330,13.0,24.0,73,0.00,,,-99.99,,2013-01-30 14:02:00,
2013-01-30 08:12:00,16.0,9.0,-100.00,NW,325,15.0,26.0,73,0.00,,,-99.99,,2013-01-30 14:12:00,
2013-01-30 08:22:00,16.0,9.0,-100.00,NNW,335,15.0,27.0,73,0.00,,,-99.99,,2013-01-30 14:22:00,
2013-01-30 08:33:00,16.0,9.0,-100.00,NNW,330,19.0,26.0,73,0.00,,,-99.99,,2013-01-30 14:33:00,
2013-01-30 08:42:00,16.0,9.0,-100.00,NNW,330,19.0,26.0,73,0.00,,,-99.99,,2013-01-30 14:42:00,
2013-01-30 08:52:00,16.0,9.0,-100.00,NW,315,17.0,26.0,72,0.00,,,-99.99,,2013-01-30 14:52:00,
2013-01-30 09:03:00,16.0,9.0,-100.00,NW,315,17.0,26.0,72,0.00,,,-99.99,,2013-01-30 15:03:00,
2013-01-30 09:12:00,16.0,9.0,-100.00,NW,320,15.0,24.0,72,0.00,,,-99.99,,2013-01-30 15:12:00,
2013-01-30 09:23:00,16.0,9.0,-100.00,NNW,335,17.0,29.0,72,0.00,,,-99.99,,2013-01-30 15:23:00,
2013-01-30 09:33:00,16.0,9.0,-100.00,NW,325,14.0,26.0,71,0.00,,,-99.99,,2013-01-30 15:33:00,
2013-01-30 09:43:00,16.0,9.0,-100.00,NW,325,14.0,26.0,71,0.00,,,-99.99,,2013-01-30 15:43:00,
2013-01-30 09:52:00,16.0,8.0,-100.00,NW,325,16.0,25.0,70,0.00,,,-99.99,,2013-01-30 15:52:00,
2013-01-30 10:03:00,16.0,8.0,-100.00,NW,325,16.0,25.0,70,0.00,,,-99.99,,2013-01-30 16:03:00,
2013-01-30 10:12:00,16.0,8.0,-100.00,NW,325,19.0,27.0,70,0.00,,,-99.99,,2013-01-30 16:12:00,
2013-01-30 10:23:00,17.0,9.0,-100.00,NNW,340,18.0,30.0,69,0.00,,,-99.99,,2013-01-30 16:23:00,
2013-01-30 10:32:00,17.0,8.0,-100.00,NW,325,17.0,29.0,68,0.00,,,-99.99,,2013-01-30 16:32:00,
2013-01-30 10:42:00,17.0,8.0,-100.00,NW,325,17.0,29.0,68,0.00,,,-99.99,,2013-01-30 16:42:00,
2013-01-30 10:52:00,17.0,8.0,-100.00,NNW,330,17.0,26.0,67,0.00,,,-99.99,,2013-01-30 16:52:00,
2013-01-30 11:02:00,17.0,8.0,-100.00,NNW,330,17.0,26.0,67,0.00,,,-99.99,,2013-01-30 17:02:00,
2013-01-30 11:12:00,17.0,8.0,-100.00,NW,325,16.0,24.0,67,0.01,,,-99.99,,2013-01-30 17:12:00,
2013-01-30 11:22:00,17.0,9.0,-100.00,NW,310,13.0,21.0,70,0.01,,,-99.99,,2013-01-30 17:22:00,
2013-01-30 11:32:00,17.0,8.0,-100.00,NW,315,17.0,26.0,68,0.00,,,-99.99,,2013-01-30 17:32:00,
2013-01-30 11:42:00,17.0,8.0,-100.00,NW,315,17.0,26.0,68,0.00,,,-99.99,,2013-01-30 17:42:00,
2013-01-30 11:53:00,17.0,8.0,-100.00,NW,305,17.0,25.0,67,0.00,,,-99.99,,2013-01-30 17:53:00,
2013-01-30 12:02:00,17.0,8.0,-100.00,NW,305,17.0,25.0,67,0.00,,,-99.99,,2013-01-30 18:02:00,
2013-01-30 12:12:00,18.0,8.0,-100.00,NW,320,17.0,27.0,65,0.00,,,-99.99,,2013-01-30 18:12:00,
2013-01-30 12:22:00,18.0,8.0,-100.00,NW,325,16.0,28.0,65,0.00,,,-99.99,,2013-01-30 18:22:00,
2013-01-30 12:33:00,18.0,8.0,-100.00,NNW,335,20.0,31.0,63,0.00,,,-99.99,,2013-01-30 18:33:00,
2013-01-30 12:42:00,18.0,8.0,-100.00,NNW,335,20.0,31.0,63,0.00,,,-99.99,,2013-01-30 18:42:00,
2013-01-30 12:52:00,19.0,8.0,-100.00,NW,325,15.0,32.0,63,0.00,,,-99.99,,2013-01-30 18:52:00,
2013-01-30 13:02:00,19.0,8.0,-100.00,NNW,330,16.0,26.0,62,0.00,,,-99.99,,2013-01-30 19:02:00,
2013-01-30 13:12:00,19.0,8.0,-100.00,NNW,330,17.0,30.0,61,0.00,,,-99.99,,2013-01-30 19:12:00,
2013-01-30 13:22:00,19.0,8.0,-100.00,NNW,335,17.0,27.0,61,0.00,,,-99.99,,2013-01-30 19:22:00,
2013-01-30 13:32:00,19.0,8.0,-100.00,NW,325,16.0,24.0,61,0.00,,,-99.99,,2013-01-30 19:32:00,
2013-01-30 13:42:00,19.0,8.0,-100.00,NW,325,16.0,24.0,61,0.00,,,-99.99,,2013-01-30 19:42:00,
2013-01-30 13:52:00,19.0,8.0,-100.00,NNW,330,13.0,27.0,60,0.00,,,-99.99,,2013-01-30 19:52:00,
2013-01-30 14:03:00,19.0,8.0,-100.00,NNW,330,13.0,27.0,60,0.00,,,-99.99,,2013-01-30 20:03:00,
2013-01-30 14:12:00,19.0,8.0,-100.00,NNW,335,21.0,28.0,60,0.00,,,-99.99,,2013-01-30 20:12:00,
2013-01-30 14:22:00,19.0,8.0,-100.00,NNW,330,15.0,26.0,59,0.00,,,-99.99,,2013-01-30 20:22:00,
2013-01-30 14:33:00,19.0,8.0,-100.00,NW,310,19.0,28.0,60,0.00,,,-99.99,,2013-01-30 20:33:00,
2013-01-30 14:42:00,19.0,8.0,-100.00,NW,310,19.0,28.0,60,0.00,,,-99.99,,2013-01-30 20:42:00,
2013-01-30 14:52:00,19.0,8.0,-100.00,NNW,330,17.0,26.0,60,0.00,,,-99.99,,2013-01-30 20:52:00,
2013-01-30 15:03:00,19.0,8.0,-100.00,NNW,330,17.0,26.0,60,0.00,,,-99.99,,2013-01-30 21:03:00,
2013-01-30 15:12:00,19.0,8.0,-100.00,NNW,330,16.0,24.0,60,0.00,,,-99.99,,2013-01-30 21:12:00,
2013-01-30 15:22:00,18.0,7.0,-100.00,NNW,330,17.0,25.0,59,0.00,,,-99.99,,2013-01-30 21:22:00,
2013-01-30 15:32:00,19.0,7.0,-100.00,NW,325,14.0,22.0,59,0.00,,,-99.99,,2013-01-30 21:32:00,
2013-01-30 15:42:00,19.0,7.0,-100.00,NW,325,14.0,22.0,59,0.00,,,-99.99,,2013-01-30 21:42:00,
2013-01-30 15:52:00,19.0,8.0,-100.00,NW,320,14.0,22.0,60,0.00,,,-99.99,,2013-01-30 21:52:00,
2013-01-30 16:03:00,19.0,8.0,-100.00,NW,320,14.0,22.0,60,0.00,,,-99.99,,2013-01-30 22:03:00,
2013-01-30 16:12:00,19.0,8.0,-100.00,NW,315,12.0,22.0,60,0.00,,,-99.99,,2013-01-30 22:12:00,
2013-01-30 16:22:00,19.0,8.0,-100.00,NW,320,16.0,26.0,60,0.00,,,-99.99,,2013-01-30 22:22:00,
2013-01-30 16:32:00,18.0,7.0,-100.00,NW,310,19.0,26.0,61,0.00,,,-99.99,,2013-01-30 22:32:00,
2013-01-30 16:42:00,18.0,7.0,-100.00,NW,310,19.0,26.0,61,0.00,,,-99.99,,2013-01-30 22:42:00,
2013-01-30 16:52:00,17.0,7.0,-100.00,NW,310,15.0,24.0,62,0.00,,,-99.99,,2013-01-30 22:52:00,
2013-01-30 17:02:00,17.0,7.0,-100.00,NW,310,15.0,24.0,62,0.00,,,-99.99,,2013-01-30 23:02:00,
2013-01-30 17:12:00,17.0,6.0,-100.00,NW,305,16.0,26.0,63,0.00,,,-99.99,,2013-01-30 23:12:00,
2013-01-30 17:22:00,17.0,6.0,-100.00,WNW,300,16.0,23.0,63,0.00,,,-99.99,,2013-01-30 23:22:00,
2013-01-30 17:32:00,16.0,6.0,-100.00,NW,315,14.0,23.0,64,0.00,,,-99.99,,2013-01-30 23:32:00,
2013-01-30 17:42:00,16.0,6.0,-100.00,NW,315,14.0,23.0,64,0.00,,,-99.99,,2013-01-30 23:42:00,
2013-01-30 17:52:00,16.0,6.0,-100.00,NW,305,15.0,21.0,64,0.00,,,-99.99,,2013-01-30 23:52:00,
2013-01-30 18:02:00,16.0,6.0,-100.00,NW,305,15.0,21.0,64,0.00,,,-99.99,,2013-01-31 00:02:00,
2013-01-30 18:11:00,15.0,6.0,-100.00,NW,305,15.0,24.0,64,0.00,,,-99.99,,2013-01-31 00:11:00,
2013-01-30 18:21:00,15.0,6.0,-100.00,NW,305,15.0,22.0,65,0.01,,,-99.99,,2013-01-31 00:21:00,
2013-01-30 18:32:00,15.0,6.0,-100.00,NW,305,17.0,23.0,66,0.00,,,-99.99,,2013-01-31 00:32:00,
2013-01-30 18:42:00,15.0,6.0,-100.00,NW,305,17.0,23.0,66,0.00,,,-99.99,,2013-01-31 00:42:00,
2013-01-30 18:52:00,14.0,5.0,-100.00,NW,305,15.0,22.0,67,0.00,,,-99.99,,2013-01-31 00:52:00,
2013-01-30 19:02:00,14.0,5.0,-100.00,NW,305,15.0,22.0,67,0.00,,,-99.99,,2013-01-31 01:02:00,
2013-01-30 19:11:00,14.0,5.0,-100.00,NW,315,16.0,22.0,66,0.00,,,-99.99,,2013-01-31 01:11:00,
2013-01-30 19:21:00,14.0,4.0,-100.00,NW,320,15.0,21.0,66,0.00,,,-99.99,,2013-01-31 01:21:00,
2013-01-30 19:31:00,13.0,4.0,-100.00,NW,305,12.0,19.0,66,0.00,,,-99.99,,2013-01-31 01:31:00,
2013-01-30 19:41:00,13.0,4.0,-100.00,NW,305,12.0,19.0,66,0.00,,,-99.99,,2013-01-31 01:41:00,
2013-01-30 19:52:00,12.0,3.0,-100.00,WNW,300,14.0,21.0,67,0.00,,,-99.99,,2013-01-31 01:52:00,
2013-01-30 20:01:00,12.0,3.0,-100.00,WNW,300,14.0,21.0,67,0.00,,,-99.99,,2013-01-31 02:01:00,
2013-01-30 20:11:00,12.0,3.0,-100.00,NW,315,14.0,22.0,67,0.00,,,-99.99,,2013-01-31 02:11:00,
2013-01-30 20:21:00,12.0,3.0,-100.00,NW,305,17.0,21.0,67,0.00,,,-99.99,,2013-01-31 02:21:00,
2013-01-30 20:32:00,11.0,3.0,-100.00,NW,305,14.0,20.0,67,0.00,,,-99.99,,2013-01-31 02:32:00,
2013-01-30 20:41:00,11.0,3.0,-100.00,NW,305,14.0,20.0,67,0.00,,,-99.99,,2013-01-31 02:41:00,
2013-01-30 20:52:00,11.0,3.0,-100.00,NW,305,14.0,20.0,67,0.00,,,-99.99,,2013-01-31 02:52:00,
2013-01-30 21:03:00,11.0,2.0,-100.00,NW,320,12.0,16.0,67,0.00,,,-99.99,,2013-01-31 03:03:00,
2013-01-30 21:11:00,11.0,2.0,-100.00,NW,310,11.0,16.0,67,0.00,,,-99.99,,2013-01-31 03:11:00,
2013-01-30 21:21:00,10.0,2.0,-100.00,NW,305,11.0,20.0,68,0.00,,,-99.99,,2013-01-31 03:21:00,
2013-01-30 21:32:00,10.0,2.0,-100.00,WNW,300,13.0,18.0,68,0.00,,,-99.99,,2013-01-31 03:32:00,
2013-01-30 21:41:00,10.0,2.0,-100.00,WNW,300,13.0,18.0,68,0.00,,,-99.99,,2013-01-31 03:41:00,
2013-01-30 21:51:00,9.0,1.0,-100.00,NW,305,8.0,16.0,68,0.00,,,-99.99,,2013-01-31 03:51:00,
2013-01-30 22:02:00,9.0,1.0,-100.00,NW,305,8.0,16.0,68,0.00,,,-99.99,,2013-01-31 04:02:00,
2013-01-30 22:11:00,9.0,1.0,-100.00,NW,305,9.0,17.0,69,0.00,,,-99.99,,2013-01-31 04:11:00,
2013-01-30 22:22:00,9.0,1.0,-100.00,NW,305,9.0,19.0,70,0.00,,,-99.99,,2013-01-31 04:22:00,
2013-01-30 22:31:00,8.0,0.0,-100.00,WNW,290,11.0,19.0,70,0.00,,,-99.99,,2013-01-31 04:31:00,
2013-01-30 22:41:00,8.0,0.0,-100.00,WNW,290,11.0,19.0,70,0.00,,,-99.99,,2013-01-31 04:41:00,
2013-01-30 22:51:00,8.0,0.0,-100.00,WNW,295,15.0,22.0,70,0.00,,,-99.99,,2013-01-31 04:51:00,
2013-01-30 23:03:00,8.0,0.0,-100.00,WNW,295,15.0,22.0,70,0.00,,,-99.99,,2013-01-31 05:03:00,
2013-01-30 23:11:00,8.0,0.0,-100.00,WNW,300,17.0,22.0,70,0.00,,,-99.99,,2013-01-31 05:11:00,
2013-01-30 23:22:00,7.0,0.0,-100.00,WNW,295,14.0,20.0,69,0.00,,,-99.99,,2013-01-31 05:22:00,
2013-01-30 23:32:00,7.0,0.0,-100.00,WNW,295,14.0,20.0,69,0.00,,,-99.99,,2013-01-31 05:32:00,
2013-01-30 23:41:00,7.0,0.0,-100.00,NW,305,10.0,17.0,69,0.00,,,-99.99,,2013-01-31 05:41:00,
2013-01-30 23:51:00,7.0,0.0,-100.00,NW,305,10.0,17.0,69,0.00,,,-99.99,,2013-01-31 05:51:00,